Location: Unspecified
(0.0000°N, 0.0000°E)
Time: 18:48:25
(UTC+00:00)

Vanguard 3 - Pass Details

Date: 22 November 2019
Orbit: 508 x 3263 km, 33.3° (Epoch: 06 December)

Event Time Altitude Azimuth Distance (km) Brightness Sun altitude
Rises 12:52:07 0° 277° (W) 6,192 11.8 64.2°
Reaches altitude 10° 12:57:05 10° 289° (WNW) 5,542 11.7 63.4°
Maximum altitude 13:10:45 26° 339° (NNW) 4,882 11.3 61.1°
Drops below altitude 10° 13:25:51 10° 29° (NNE) 6,058 11.4 58.4°
Sets 13:31:48 0° 42° (NE) 6,840 11.5 57.2°
